Weather in Mir

Russia / Yaroslavl Oblast     58°27′20″N   39°25′42″E
temp.,
°C
wind,
m/s
gust,
m/s
humid.,
%
clouds,
%
prec.,
mm/h
press.,
hPa
HPBL,
m
27 july, tue
tue2700:00+17wnw267024 0.0 1020125
03:00+13nnw22915 0.0 102019
06:00+15nnw11815 0.0 102055
09:00+21w22586 0.0 1020535
12:00+25wnw254396 0.0 10192331
15:00+22wnw245996 0.1 1018549
18:00+24w3451100 0.0 10181026
21:00+15s22970 2.4 101824
28 july, wed
wed2800:00+14n11950 0.0 101810
03:00+13ene11955 0.0 101810
06:00+14se12945 0.0 101780
09:00+19sse226999 0.0 1016333
12:00+24se2245100 0.0 10141004
15:00+26ssw2342100 0.0 10122030
18:00+25ese2251100 0.0 101052
21:00+19sw3873100 0.0 1010262
29 july, thu
thu2900:00+17s2491100 0.1 1008110
03:00+16sw1195100 0.3 100741
06:00+16wsw1399100 0.9 1006103
09:00+18sw239442 2.1 1005285
12:00+21wsw467575 0.9 10041032
15:00+25w5854100 1.2 10031516
18:00+23w376480 0.2 1002898
21:00+17wsw239414 0.6 100348
30 july, fri
fri3000:00+16w29935 0.3 1003189
03:00+15wsw28965 0.3 1004166
06:00+16wsw28946 0.0 1004213
09:00+22wsw36578 0.0 1005686
12:00+22wsw475838 0.0 1005523
15:00+23sw375381 0.0 1004614
18:00+23sw384899 0.0 1004626
21:00+18ssw227074 0.0 100341
31 july, sat
sat3100:00+17sw267199 0.0 1003117
03:00+15sw118990 0.1 100311
06:00+16ssw268237 0.0 1003160
09:00+22sw585442 0.0 1002993
12:00+24wsw59414 0.0 10022150
15:00+26wsw69300 0.0 10012495
18:00+25sw510359 0.0 10002248
21:00+22sw384564 0.0 1000332